Time,TemperatureF,DewpointF,PressureIn,WindDirection,WindDirectionDegrees,WindSpeedMPH,WindSpeedGustMPH,Humidity,HourlyPrecipIn,Conditions,Clouds,dailyrainin,SoftwareType,DateUTC
2013-03-09 00:00:00,33.0,26.3,30.16,SSW,202,5.0,10.0,76,0.00,,,-99.99,Weather View 32 v60,2013-03-09 06:00:00,
2013-03-09 00:05:00,33.0,25.9,30.16,SSW,202,3.0,10.0,75,0.00,,,-99.99,Weather View 32 v60,2013-03-09 06:05:00,
2013-03-09 00:10:00,33.0,25.6,30.16,SSW,202,4.0,10.0,74,0.00,,,-99.99,Weather View 32 v60,2013-03-09 06:10:00,
2013-03-09 00:15:00,33.0,25.6,30.16,SSW,202,2.0,10.0,74,0.00,,,-99.99,Weather View 32 v60,2013-03-09 06:15:00,
2013-03-09 00:20:00,33.0,25.3,30.16,SSW,202,3.0,10.0,73,0.00,,,-99.99,Weather View 32 v60,2013-03-09 06:20:00,
2013-03-09 00:25:00,33.0,25.3,30.16,South,180,2.0,10.0,73,0.00,,,-99.99,Weather View 32 v60,2013-03-09 06:25:00,
2013-03-09 00:30:00,34.0,25.9,30.16,South,180,3.0,10.0,72,0.00,,,-99.99,Weather View 32 v60,2013-03-09 06:30:00,
2013-03-09 00:35:00,34.0,25.9,30.15,South,180,3.0,10.0,72,0.00,,,-99.99,Weather View 32 v60,2013-03-09 06:35:00,
2013-03-09 00:40:00,34.0,25.6,30.15,SW,225,4.0,10.0,71,0.00,,,-99.99,Weather View 32 v60,2013-03-09 06:40:00,
2013-03-09 00:45:00,34.0,25.6,30.15,SSW,202,5.0,10.0,71,0.00,,,-99.99,Weather View 32 v60,2013-03-09 06:45:00,
2013-03-09 00:50:00,34.0,25.6,30.15,South,180,5.0,10.0,71,0.00,,,-99.99,Weather View 32 v60,2013-03-09 06:50:00,
2013-03-09 00:55:00,34.0,25.6,30.15,SSW,202,1.0,10.0,71,0.00,,,-99.99,Weather View 32 v60,2013-03-09 06:55:00,
2013-03-09 01:00:00,34.0,25.6,30.14,SW,225,2.0,10.0,71,0.00,,,-99.99,Weather View 32 v60,2013-03-09 07:00:00,
2013-03-09 01:05:00,34.0,25.6,30.14,South,180,6.0,10.0,71,0.00,,,-99.99,Weather View 32 v60,2013-03-09 07:05:00,
2013-03-09 01:10:00,34.0,25.2,30.14,SSW,202,5.0,10.0,70,0.00,,,-99.99,Weather View 32 v60,2013-03-09 07:10:00,
2013-03-09 01:15:00,34.0,25.2,30.14,SW,225,3.0,10.0,70,0.00,,,-99.99,Weather View 32 v60,2013-03-09 07:15:00,
2013-03-09 01:20:00,34.0,25.2,30.14,SW,225,4.0,10.0,70,0.00,,,-99.99,Weather View 32 v60,2013-03-09 07:20:00,
2013-03-09 01:25:00,34.0,25.2,30.13,SSW,202,4.0,10.0,70,0.00,,,-99.99,Weather View 32 v60,2013-03-09 07:25:00,
2013-03-09 01:30:00,34.0,25.2,30.13,South,180,3.0,10.0,70,0.00,,,-99.99,Weather View 32 v60,2013-03-09 07:30:00,
2013-03-09 01:35:00,34.0,25.2,30.12,SSW,202,5.0,10.0,70,0.00,,,-99.99,Weather View 32 v60,2013-03-09 07:35:00,
2013-03-09 01:40:00,34.0,25.2,30.12,SSW,202,6.0,10.0,70,0.00,,,-99.99,Weather View 32 v60,2013-03-09 07:40:00,
2013-03-09 01:45:00,34.0,25.2,30.12,South,180,2.0,10.0,70,0.00,,,-99.99,Weather View 32 v60,2013-03-09 07:45:00,
2013-03-09 01:50:00,34.0,25.6,30.11,South,180,3.0,10.0,71,0.00,,,-99.99,Weather View 32 v60,2013-03-09 07:50:00,
2013-03-09 01:55:00,34.0,25.6,30.11,SSW,202,6.0,10.0,71,0.00,,,-99.99,Weather View 32 v60,2013-03-09 07:55:00,
2013-03-09 02:00:00,34.0,25.6,30.11,SSW,202,2.0,10.0,71,0.00,,,-99.99,Weather View 32 v60,2013-03-09 08:00:00,
2013-03-09 02:05:00,34.0,25.6,30.10,SSE,158,4.0,10.0,71,0.00,,,-99.99,Weather View 32 v60,2013-03-09 08:05:00,
2013-03-09 02:10:00,34.0,25.6,30.10,SSE,158,3.0,10.0,71,0.00,,,-99.99,Weather View 32 v60,2013-03-09 08:10:00,
2013-03-09 02:15:00,34.0,25.6,30.10,SW,225,3.0,10.0,71,0.00,,,-99.99,Weather View 32 v60,2013-03-09 08:15:00,
2013-03-09 02:20:00,34.0,25.6,30.09,SSW,202,3.0,10.0,71,0.00,,,-99.99,Weather View 32 v60,2013-03-09 08:20:00,
2013-03-09 02:25:00,34.0,25.9,30.09,South,180,3.0,10.0,72,0.00,,,-99.99,Weather View 32 v60,2013-03-09 08:25:00,
2013-03-09 02:30:00,34.0,25.9,30.09,SSW,202,2.0,10.0,72,0.00,,,-99.99,Weather View 32 v60,2013-03-09 08:30:00,
2013-03-09 02:35:00,34.0,25.9,30.09,SSE,158,6.0,10.0,72,0.00,,,-99.99,Weather View 32 v60,2013-03-09 08:35:00,
2013-03-09 02:40:00,34.0,25.9,30.08,SSE,158,6.0,10.0,72,0.00,,,-99.99,Weather View 32 v60,2013-03-09 08:40:00,
2013-03-09 02:45:00,34.0,25.9,30.08,SSW,202,4.0,10.0,72,0.00,,,-99.99,Weather View 32 v60,2013-03-09 08:45:00,
2013-03-09 02:50:00,34.0,26.3,30.08,SSW,202,5.0,11.0,73,0.00,,,-99.99,Weather View 32 v60,2013-03-09 08:50:00,
2013-03-09 02:55:00,34.0,26.3,30.08,SSW,202,8.0,11.0,73,0.00,,,-99.99,Weather View 32 v60,2013-03-09 08:55:00,
2013-03-09 03:00:00,34.0,26.6,30.08,SSW,202,5.0,11.0,74,0.00,,,-99.99,Weather View 32 v60,2013-03-09 09:00:00,
2013-03-09 03:05:00,34.0,26.9,30.08,SSE,158,5.0,11.0,75,0.00,,,-99.99,Weather View 32 v60,2013-03-09 09:05:00,
2013-03-09 03:20:00,33.0,26.9,30.07,SW,225,3.0,11.0,78,0.01,,,-99.99,Weather View 32 v60,2013-03-09 09:20:00,
2013-03-09 03:25:00,33.0,27.2,30.07,SW,225,3.0,11.0,79,0.01,,,-99.99,Weather View 32 v60,2013-03-09 09:25:00,
2013-03-09 03:30:00,33.0,27.5,30.07,SSW,202,3.0,11.0,80,0.01,,,-99.99,Weather View 32 v60,2013-03-09 09:30:00,
2013-03-09 03:35:00,33.0,27.8,30.07,South,180,1.0,11.0,81,0.01,,,-99.99,Weather View 32 v60,2013-03-09 09:35:00,
2013-03-09 03:50:00,32.0,27.1,30.06,South,180,5.0,11.0,82,0.01,,,-99.99,Weather View 32 v60,2013-03-09 09:50:00,
2013-03-09 04:10:00,34.0,27.2,30.08,SSW,202,1.0,11.0,76,0.00,,,-99.99,Weather View 32 v60,2013-03-09 10:10:00,
2013-03-09 04:15:00,33.0,26.6,30.07,SSE,158,4.0,11.0,77,0.00,,,-99.99,Weather View 32 v60,2013-03-09 10:15:00,
2013-03-09 04:25:00,32.0,28.0,30.04,South,180,3.0,10.0,85,0.00,,,-99.99,Weather View 32 v60,2013-03-09 10:25:00,
2013-03-09 04:27:00,33.0,27.2,30.07,SW,225,3.0,11.0,79,0.01,,,-99.99,Weather View 32 v60,2013-03-09 10:27:00,
2013-03-09 04:30:00,32.0,28.0,30.04,SSE,158,5.0,10.0,85,0.00,,,-99.99,Weather View 32 v60,2013-03-09 10:30:00,
2013-03-09 04:40:00,33.0,27.8,30.06,South,180,1.0,11.0,81,0.01,,,-99.99,Weather View 32 v60,2013-03-09 10:40:00,
2013-03-09 04:45:00,33.0,28.1,30.06,SSW,202,5.0,11.0,82,0.01,,,-99.99,Weather View 32 v60,2013-03-09 10:45:00,
2013-03-09 04:50:00,32.0,28.3,30.03,South,180,3.0,10.0,86,0.00,,,-99.99,Weather View 32 v60,2013-03-09 10:50:00,
2013-03-09 04:55:00,32.0,27.4,30.06,SSW,202,8.0,11.0,83,0.01,,,-99.99,Weather View 32 v60,2013-03-09 10:55:00,
2013-03-09 05:00:00,32.0,27.4,30.06,South,180,3.0,11.0,83,0.01,,,-99.99,Weather View 32 v60,2013-03-09 11:00:00,
2013-03-09 05:05:00,32.0,27.4,30.06,SSW,202,1.0,11.0,83,0.01,,,-99.99,Weather View 32 v60,2013-03-09 11:05:00,
2013-03-09 05:10:00,32.0,27.4,30.05,South,180,2.0,11.0,83,0.01,,,-99.99,Weather View 32 v60,2013-03-09 11:10:00,
2013-03-09 05:15:00,32.0,28.6,30.03,ESE,112,5.0,10.0,87,0.00,,,-99.99,Weather View 32 v60,2013-03-09 11:15:00,
2013-03-09 05:20:00,32.0,27.7,30.05,SE,135,5.0,10.0,84,0.00,,,-99.99,Weather View 32 v60,2013-03-09 11:20:00,
2013-03-09 05:25:00,32.0,28.6,30.03,SSE,158,3.0,10.0,87,0.00,,,-99.99,Weather View 32 v60,2013-03-09 11:25:00,
2013-03-09 05:27:00,32.0,28.0,30.04,South,180,3.0,10.0,85,0.00,,,-99.99,Weather View 32 v60,2013-03-09 11:27:00,
2013-03-09 05:30:00,32.0,28.6,30.03,SSE,158,3.0,10.0,87,0.00,,,-99.99,Weather View 32 v60,2013-03-09 11:30:00,
2013-03-09 05:35:00,32.0,28.0,30.04,South,180,3.0,10.0,85,0.00,,,-99.99,Weather View 32 v60,2013-03-09 11:35:00,
2013-03-09 05:40:00,32.0,28.0,30.04,South,180,5.0,10.0,85,0.00,,,-99.99,Weather View 32 v60,2013-03-09 11:40:00,
2013-03-09 05:55:00,32.0,28.3,30.03,South,180,3.0,10.0,86,0.00,,,-99.99,Weather View 32 v60,2013-03-09 11:55:00,
2013-03-09 06:00:00,32.0,28.3,30.03,SE,135,6.0,10.0,86,0.00,,,-99.99,Weather View 32 v60,2013-03-09 12:00:00,
2013-03-09 06:05:00,32.0,28.3,30.03,SSE,158,6.0,10.0,86,0.00,,,-99.99,Weather View 32 v60,2013-03-09 12:05:00,
2013-03-09 06:10:00,32.0,28.6,30.03,South,180,5.0,10.0,87,0.00,,,-99.99,Weather View 32 v60,2013-03-09 12:10:00,
2013-03-09 06:20:00,32.0,28.6,30.03,SSE,158,3.0,10.0,87,0.00,,,-99.99,Weather View 32 v60,2013-03-09 12:20:00,
2013-03-09 06:35:00,32.0,28.6,30.02,SSE,158,1.0,10.0,87,0.00,,,-99.99,Weather View 32 v60,2013-03-09 12:35:00,
2013-03-09 06:45:00,32.0,28.6,30.02,SSE,158,2.0,10.0,87,0.00,,,-99.99,Weather View 32 v60,2013-03-09 12:45:00,
2013-03-09 06:50:00,32.0,28.6,30.02,SE,135,5.0,10.0,87,0.00,,,-99.99,Weather View 32 v60,2013-03-09 12:50:00,
2013-03-09 06:55:00,32.0,28.8,30.02,SSE,158,1.0,9.0,88,0.00,,,-99.99,Weather View 32 v60,2013-03-09 12:55:00,
2013-03-09 07:00:00,32.0,28.8,30.02,SW,225,1.0,9.0,88,0.00,,,-99.99,Weather View 32 v60,2013-03-09 13:00:00,
2013-03-09 07:05:00,32.0,28.8,30.02,SSE,158,4.0,9.0,88,0.00,,,-99.99,Weather View 32 v60,2013-03-09 13:05:00,
2013-03-09 07:10:00,32.0,28.8,30.01,SSW,202,1.0,8.0,88,0.00,,,-99.99,Weather View 32 v60,2013-03-09 13:10:00,
2013-03-09 07:15:00,32.0,28.8,30.01,SSW,202,1.0,8.0,88,0.00,,,-99.99,Weather View 32 v60,2013-03-09 13:15:00,
2013-03-09 07:20:00,32.0,28.8,30.01,SE,135,2.0,7.0,88,0.00,,,-99.99,Weather View 32 v60,2013-03-09 13:20:00,
2013-03-09 07:25:00,32.0,28.8,30.01,SSE,158,1.0,7.0,88,0.00,,,-99.99,Weather View 32 v60,2013-03-09 13:25:00,
2013-03-09 07:35:00,32.0,28.8,30.01,SSW,202,1.0,7.0,88,0.00,,,-99.99,Weather View 32 v60,2013-03-09 13:35:00,
2013-03-09 07:40:00,32.0,28.8,30.00,SSE,158,3.0,7.0,88,0.00,,,-99.99,Weather View 32 v60,2013-03-09 13:40:00,
2013-03-09 07:45:00,32.0,28.8,30.00,SSW,202,3.0,7.0,88,0.00,,,-99.99,Weather View 32 v60,2013-03-09 13:45:00,
2013-03-09 07:50:00,32.0,28.8,30.00,South,180,3.0,7.0,88,0.00,,,-99.99,Weather View 32 v60,2013-03-09 13:50:00,
2013-03-09 07:55:00,32.0,28.8,30.00,South,180,1.0,6.0,88,0.00,,,-99.99,Weather View 32 v60,2013-03-09 13:55:00,
2013-03-09 08:00:00,32.0,28.8,30.00,SW,225,1.0,6.0,88,0.00,,,-99.99,Weather View 32 v60,2013-03-09 14:00:00,
2013-03-09 08:10:00,32.0,28.8,29.99,SSW,202,3.0,6.0,88,0.00,,,-99.99,Weather View 32 v60,2013-03-09 14:10:00,
2013-03-09 08:15:00,32.0,28.8,29.99,ESE,112,3.0,6.0,88,0.00,,,-99.99,Weather View 32 v60,2013-03-09 14:15:00,
2013-03-09 08:20:00,32.0,29.1,29.99,SSE,158,2.0,6.0,89,0.00,,,-99.99,Weather View 32 v60,2013-03-09 14:20:00,
2013-03-09 08:29:00,32.0,29.1,29.98,SW,225,3.0,6.0,89,0.00,,,-99.99,Weather View 32 v60,2013-03-09 14:29:00,
2013-03-09 08:35:00,32.0,29.1,29.98,SSW,202,3.0,6.0,89,0.00,,,-99.99,Weather View 32 v60,2013-03-09 14:35:00,
2013-03-09 08:45:00,33.0,30.1,29.97,SSE,158,4.0,7.0,89,0.01,,,-99.99,Weather View 32 v60,2013-03-09 14:45:00,
2013-03-09 08:50:00,33.0,30.1,29.97,South,180,3.0,7.0,89,0.01,,,-99.99,Weather View 32 v60,2013-03-09 14:50:00,
2013-03-09 08:55:00,33.0,30.1,29.96,SSW,202,2.0,7.0,89,0.01,,,-99.99,Weather View 32 v60,2013-03-09 14:55:00,
2013-03-09 09:00:00,33.0,30.1,29.96,SSW,202,6.0,7.0,89,0.01,,,-99.99,Weather View 32 v60,2013-03-09 15:00:00,
2013-03-09 09:05:00,33.0,30.1,29.96,South,180,4.0,8.0,89,0.01,,,-99.99,Weather View 32 v60,2013-03-09 15:05:00,
2013-03-09 09:15:00,33.0,30.1,29.96,SSW,202,3.0,8.0,89,0.01,,,-99.99,Weather View 32 v60,2013-03-09 15:15:00,
2013-03-09 09:20:00,33.0,30.4,29.95,South,180,5.0,8.0,90,0.01,,,-99.99,Weather View 32 v60,2013-03-09 15:20:00,
2013-03-09 09:25:00,33.0,30.4,29.95,SW,225,5.0,8.0,90,0.01,,,-99.99,Weather View 32 v60,2013-03-09 15:25:00,
2013-03-09 09:30:00,33.0,30.4,29.95,SSW,202,8.0,10.0,90,0.01,,,-99.99,Weather View 32 v60,2013-03-09 15:30:00,
2013-03-09 09:35:00,33.0,30.4,29.94,SSW,202,3.0,10.0,90,0.02,,,-99.99,Weather View 32 v60,2013-03-09 15:35:00,
2013-03-09 09:40:00,33.0,30.4,29.94,SSW,202,3.0,10.0,90,0.01,,,-99.99,Weather View 32 v60,2013-03-09 15:40:00,
2013-03-09 09:50:00,34.0,31.4,29.94,SSW,202,3.0,10.0,90,0.01,,,-99.99,Weather View 32 v60,2013-03-09 15:50:00,
2013-03-09 09:55:00,34.0,31.4,29.94,South,180,6.0,10.0,90,0.01,,,-99.99,Weather View 32 v60,2013-03-09 15:55:00,
2013-03-09 10:05:00,34.0,31.4,29.94,SSW,202,1.0,10.0,90,0.01,,,-99.99,Weather View 32 v60,2013-03-09 16:05:00,
2013-03-09 10:10:00,34.0,31.4,29.93,SSE,158,3.0,10.0,90,0.01,,,-99.99,Weather View 32 v60,2013-03-09 16:10:00,
2013-03-09 10:15:00,34.0,31.4,29.93,WSW,248,2.0,10.0,90,0.02,,,-99.99,Weather View 32 v60,2013-03-09 16:15:00,
2013-03-09 10:20:00,34.0,31.4,29.93,SW,225,9.0,10.0,90,0.02,,,-99.99,Weather View 32 v60,2013-03-09 16:20:00,
2013-03-09 10:25:00,34.0,31.4,29.93,SW,225,3.0,10.0,90,0.02,,,-99.99,Weather View 32 v60,2013-03-09 16:25:00,
2013-03-09 10:30:00,34.0,31.4,29.93,SSW,202,5.0,10.0,90,0.02,,,-99.99,Weather View 32 v60,2013-03-09 16:30:00,
2013-03-09 10:40:00,34.0,31.4,29.93,SSW,202,4.0,10.0,90,0.01,,,-99.99,Weather View 32 v60,2013-03-09 16:40:00,
2013-03-09 10:45:00,34.0,31.4,29.93,South,180,4.0,10.0,90,0.01,,,-99.99,Weather View 32 v60,2013-03-09 16:45:00,
2013-03-09 10:50:00,34.0,31.4,29.93,SSW,202,7.0,10.0,90,0.01,,,-99.99,Weather View 32 v60,2013-03-09 16:50:00,
2013-03-09 10:55:00,34.0,31.4,29.93,SSW,202,7.0,11.0,90,0.02,,,-99.99,Weather View 32 v60,2013-03-09 16:55:00,
2013-03-09 11:00:00,34.0,31.4,29.93,South,180,6.0,11.0,90,0.02,,,-99.99,Weather View 32 v60,2013-03-09 17:00:00,
2013-03-09 11:05:00,34.0,31.4,29.92,SW,225,6.0,11.0,90,0.02,,,-99.99,Weather View 32 v60,2013-03-09 17:05:00,
2013-03-09 11:10:00,34.0,31.4,29.92,SSW,202,6.0,11.0,90,0.02,,,-99.99,Weather View 32 v60,2013-03-09 17:10:00,
2013-03-09 11:15:00,34.0,31.4,29.93,SSE,158,5.0,11.0,90,0.01,,,-99.99,Weather View 32 v60,2013-03-09 17:15:00,
2013-03-09 11:20:00,34.0,31.4,29.93,South,180,5.0,11.0,90,0.01,,,-99.99,Weather View 32 v60,2013-03-09 17:20:00,
2013-03-09 11:25:00,34.0,31.4,29.92,SSW,202,3.0,11.0,90,0.01,,,-99.99,Weather View 32 v60,2013-03-09 17:25:00,
2013-03-09 11:30:00,34.0,31.4,29.92,SW,225,3.0,11.0,90,0.02,,,-99.99,Weather View 32 v60,2013-03-09 17:30:00,
2013-03-09 11:35:00,34.0,31.6,29.91,SSW,202,2.0,11.0,91,0.02,,,-99.99,Weather View 32 v60,2013-03-09 17:35:00,
2013-03-09 11:40:00,34.0,31.6,29.91,SW,225,4.0,11.0,91,0.02,,,-99.99,Weather View 32 v60,2013-03-09 17:40:00,
2013-03-09 11:45:00,34.0,31.6,29.91,SSW,202,3.0,11.0,91,0.02,,,-99.99,Weather View 32 v60,2013-03-09 17:45:00,
2013-03-09 11:50:00,34.0,31.6,29.91,SSW,202,4.0,11.0,91,0.02,,,-99.99,Weather View 32 v60,2013-03-09 17:50:00,
2013-03-09 11:55:00,34.0,31.6,29.90,SSW,202,3.0,11.0,91,0.01,,,-99.99,Weather View 32 v60,2013-03-09 17:55:00,
2013-03-09 12:00:00,34.0,31.6,29.90,SSE,158,3.0,9.0,91,0.01,,,-99.99,Weather View 32 v60,2013-03-09 18:00:00,
2013-03-09 12:05:00,34.0,31.6,29.90,SW,225,1.0,8.0,91,0.01,,,-99.99,Weather View 32 v60,2013-03-09 18:05:00,
2013-03-09 12:10:00,34.0,31.6,29.90,SW,225,6.0,8.0,91,0.01,,,-99.99,Weather View 32 v60,2013-03-09 18:10:00,
2013-03-09 12:15:00,35.0,32.6,29.89,SSW,202,3.0,8.0,91,0.02,,,-99.99,Weather View 32 v60,2013-03-09 18:15:00,
2013-03-09 12:20:00,35.0,32.6,29.89,SW,225,3.0,8.0,91,0.02,,,-99.99,Weather View 32 v60,2013-03-09 18:20:00,
2013-03-09 12:25:00,35.0,32.6,29.89,SSW,202,2.0,8.0,91,0.02,,,-99.99,Weather View 32 v60,2013-03-09 18:25:00,
2013-03-09 12:30:00,34.0,31.6,29.89,South,180,2.0,8.0,91,0.01,,,-99.99,Weather View 32 v60,2013-03-09 18:30:00,
2013-03-09 12:35:00,34.0,31.6,29.88,SSW,202,5.0,8.0,91,0.01,,,-99.99,Weather View 32 v60,2013-03-09 18:35:00,
2013-03-09 12:45:00,34.0,31.6,29.88,SW,225,3.0,8.0,91,0.01,,,-99.99,Weather View 32 v60,2013-03-09 18:45:00,
2013-03-09 12:50:00,34.0,31.6,29.88,SSE,158,3.0,8.0,91,0.01,,,-99.99,Weather View 32 v60,2013-03-09 18:50:00,
2013-03-09 12:55:00,34.0,31.6,29.87,South,180,2.0,8.0,91,0.02,,,-99.99,Weather View 32 v60,2013-03-09 18:55:00,
2013-03-09 13:00:00,35.0,32.6,29.87,South,180,5.0,7.0,91,0.02,,,-99.99,Weather View 32 v60,2013-03-09 19:00:00,
2013-03-09 13:05:00,35.0,32.6,29.87,SW,225,2.0,7.0,91,0.02,,,-99.99,Weather View 32 v60,2013-03-09 19:05:00,
2013-03-09 13:15:00,35.0,32.6,29.86,South,180,3.0,7.0,91,0.01,,,-99.99,Weather View 32 v60,2013-03-09 19:15:00,
2013-03-09 13:20:00,35.0,32.6,29.86,ENE,68,2.0,7.0,91,0.01,,,-99.99,Weather View 32 v60,2013-03-09 19:20:00,
2013-03-09 13:25:00,34.0,31.6,29.87,SW,225,1.0,7.0,91,0.01,,,-99.99,Weather View 32 v60,2013-03-09 19:25:00,
2013-03-09 13:30:00,34.0,31.6,29.87,SW,225,2.0,7.0,91,0.01,,,-99.99,Weather View 32 v60,2013-03-09 19:30:00,
2013-03-09 13:35:00,34.0,31.6,29.87,South,180,1.0,7.0,91,0.01,,,-99.99,Weather View 32 v60,2013-03-09 19:35:00,
2013-03-09 13:40:00,34.0,31.6,29.87,SE,135,3.0,7.0,91,0.01,,,-99.99,Weather View 32 v60,2013-03-09 19:40:00,
2013-03-09 13:45:00,34.0,31.6,29.86,SSW,202,2.0,7.0,91,0.02,,,-99.99,Weather View 32 v60,2013-03-09 19:45:00,
2013-03-09 13:50:00,34.0,31.6,29.86,South,180,1.0,6.0,91,0.02,,,-99.99,Weather View 32 v60,2013-03-09 19:50:00,
2013-03-09 13:55:00,34.0,31.6,29.86,SSW,202,1.0,6.0,91,0.01,,,-99.99,Weather View 32 v60,2013-03-09 19:55:00,
2013-03-09 14:05:00,34.0,31.6,29.85,South,180,3.0,6.0,91,0.01,,,-99.99,Weather View 32 v60,2013-03-09 20:05:00,
2013-03-09 14:10:00,34.0,31.6,29.85,SSW,202,1.0,6.0,91,0.01,,,-99.99,Weather View 32 v60,2013-03-09 20:10:00,
2013-03-09 14:15:00,34.0,31.6,29.84,SSE,158,2.0,6.0,91,0.01,,,-99.99,Weather View 32 v60,2013-03-09 20:15:00,
2013-03-09 14:20:00,34.0,31.6,29.84,South,180,2.0,6.0,91,0.02,,,-99.99,Weather View 32 v60,2013-03-09 20:20:00,
2013-03-09 14:25:00,34.0,31.6,29.83,SSE,158,1.0,6.0,91,0.02,,,-99.99,Weather View 32 v60,2013-03-09 20:25:00,
2013-03-09 14:30:00,34.0,31.6,29.83,South,180,2.0,6.0,91,0.02,,,-99.99,Weather View 32 v60,2013-03-09 20:30:00,
2013-03-09 14:35:00,34.0,31.6,29.83,SSW,202,3.0,6.0,91,0.02,,,-99.99,Weather View 32 v60,2013-03-09 20:35:00,
2013-03-09 14:40:00,34.0,31.6,29.83,South,180,2.0,6.0,91,0.02,,,-99.99,Weather View 32 v60,2013-03-09 20:40:00,
2013-03-09 14:45:00,34.0,31.6,29.83,SSW,202,1.0,6.0,91,0.01,,,-99.99,Weather View 32 v60,2013-03-09 20:45:00,
2013-03-09 14:50:00,34.0,31.6,29.83,SSW,202,1.0,6.0,91,0.01,,,-99.99,Weather View 32 v60,2013-03-09 20:50:00,
2013-03-09 15:00:00,35.0,32.6,29.82,ESE,112,3.0,5.0,91,0.01,,,-99.99,Weather View 32 v60,2013-03-09 21:00:00,
2013-03-09 15:05:00,35.0,32.6,29.82,South,180,1.0,6.0,91,0.01,,,-99.99,Weather View 32 v60,2013-03-09 21:05:00,
2013-03-09 15:10:00,35.0,32.6,29.82,SSE,158,1.0,6.0,91,0.02,,,-99.99,Weather View 32 v60,2013-03-09 21:10:00,
2013-03-09 15:20:00,35.0,32.6,29.82,SSW,202,1.0,6.0,91,0.01,,,-99.99,Weather View 32 v60,2013-03-09 21:20:00,
2013-03-09 15:25:00,35.0,32.6,29.82,ESE,112,2.0,6.0,91,0.01,,,-99.99,Weather View 32 v60,2013-03-09 21:25:00,
2013-03-09 15:33:00,34.0,31.6,29.82,South,180,2.0,6.0,91,0.01,,,-99.99,Weather View 32 v60,2013-03-09 21:33:00,
2013-03-09 15:40:00,34.0,31.6,29.82,SSE,158,3.0,6.0,91,0.01,,,-99.99,Weather View 32 v60,2013-03-09 21:40:00,
2013-03-09 15:45:00,34.0,31.6,29.81,SSE,158,3.0,6.0,91,0.01,,,-99.99,Weather View 32 v60,2013-03-09 21:45:00,
2013-03-09 15:55:00,34.0,31.6,29.81,South,180,2.0,7.0,91,0.02,,,-99.99,Weather View 32 v60,2013-03-09 21:55:00,
2013-03-09 16:00:00,35.0,32.6,29.82,South,180,1.0,7.0,91,0.02,,,-99.99,Weather View 32 v60,2013-03-09 22:00:00,
2013-03-09 16:05:00,35.0,32.6,29.82,WSW,248,1.0,7.0,91,0.02,,,-99.99,Weather View 32 v60,2013-03-09 22:05:00,
2013-03-09 16:10:00,35.0,32.6,29.82,SSE,158,3.0,7.0,91,0.01,,,-99.99,Weather View 32 v60,2013-03-09 22:10:00,
2013-03-09 16:20:00,35.0,32.6,29.81,South,180,2.0,7.0,91,0.01,,,-99.99,Weather View 32 v60,2013-03-09 22:20:00,
2013-03-09 16:25:00,35.0,32.6,29.81,SSW,202,1.0,7.0,91,0.01,,,-99.99,Weather View 32 v60,2013-03-09 22:25:00,
2013-03-09 16:30:00,35.0,32.6,29.81,South,180,1.0,7.0,91,0.01,,,-99.99,Weather View 32 v60,2013-03-09 22:30:00,
2013-03-09 16:35:00,35.0,32.6,29.81,SW,225,3.0,7.0,91,0.01,,,-99.99,Weather View 32 v60,2013-03-09 22:35:00,
2013-03-09 16:40:00,35.0,32.6,29.81,WSW,248,1.0,7.0,91,0.01,,,-99.99,Weather View 32 v60,2013-03-09 22:40:00,
2013-03-09 16:45:00,35.0,32.6,29.81,SSW,202,3.0,7.0,91,0.02,,,-99.99,Weather View 32 v60,2013-03-09 22:45:00,
2013-03-09 16:50:00,35.0,32.6,29.81,SSW,202,1.0,7.0,91,0.01,,,-99.99,Weather View 32 v60,2013-03-09 22:50:00,
2013-03-09 16:55:00,35.0,32.6,29.81,SSW,202,1.0,6.0,91,0.01,,,-99.99,Weather View 32 v60,2013-03-09 22:55:00,
2013-03-09 17:00:00,35.0,32.6,29.80,SW,225,1.0,6.0,91,0.01,,,-99.99,Weather View 32 v60,2013-03-09 23:00:00,
2013-03-09 17:10:00,35.0,32.6,29.80,SSE,158,3.0,6.0,91,0.01,,,-99.99,Weather View 32 v60,2013-03-09 23:10:00,
2013-03-09 17:15:00,34.0,31.6,29.80,South,180,1.0,6.0,91,0.01,,,-99.99,Weather View 32 v60,2013-03-09 23:15:00,
2013-03-09 17:20:00,34.0,31.6,29.80,SSE,158,2.0,6.0,91,0.01,,,-99.99,Weather View 32 v60,2013-03-09 23:20:00,
2013-03-09 17:25:00,34.0,31.6,29.80,SW,225,1.0,6.0,91,0.02,,,-99.99,Weather View 32 v60,2013-03-09 23:25:00,
2013-03-09 17:30:00,34.0,31.6,29.80,SW,225,1.0,6.0,91,0.02,,,-99.99,Weather View 32 v60,2013-03-09 23:30:00,
2013-03-09 17:35:00,34.0,31.6,29.81,SSW,202,1.0,6.0,91,0.02,,,-99.99,Weather View 32 v60,2013-03-09 23:35:00,
2013-03-09 17:40:00,34.0,31.6,29.81,SSW,202,1.0,6.0,91,0.02,,,-99.99,Weather View 32 v60,2013-03-09 23:40:00,
2013-03-09 17:45:00,34.0,31.6,29.81,SSW,202,1.0,6.0,91,0.01,,,-99.99,Weather View 32 v60,2013-03-09 23:45:00,
2013-03-09 17:55:00,34.0,31.6,29.82,SW,225,1.0,5.0,91,0.01,,,-99.99,Weather View 32 v60,2013-03-09 23:55:00,
2013-03-09 18:00:00,34.0,31.6,29.82,SW,225,0.0,5.0,91,0.01,,,-99.99,Weather View 32 v60,2013-03-10 00:00:00,
2013-03-09 18:05:00,34.0,31.6,29.82,SW,225,1.0,5.0,91,0.01,,,-99.99,Weather View 32 v60,2013-03-10 00:05:00,
2013-03-09 18:10:00,34.0,31.6,29.82,SW,225,0.0,5.0,91,0.01,,,-99.99,Weather View 32 v60,2013-03-10 00:10:00,
2013-03-09 18:15:00,34.0,31.6,29.82,SW,225,0.0,5.0,91,0.01,,,-99.99,Weather View 32 v60,2013-03-10 00:15:00,
2013-03-09 18:25:00,34.0,31.6,29.81,South,180,2.0,3.0,91,0.01,,,-99.99,Weather View 32 v60,2013-03-10 00:25:00,
2013-03-09 18:30:00,34.0,31.6,29.82,South,180,1.0,3.0,91,0.01,,,-99.99,Weather View 32 v60,2013-03-10 00:30:00,
2013-03-09 18:35:00,34.0,31.6,29.81,SW,225,0.0,3.0,91,0.01,,,-99.99,Weather View 32 v60,2013-03-10 00:35:00,
2013-03-09 18:40:00,34.0,31.6,29.81,SW,225,0.0,3.0,91,0.01,,,-99.99,Weather View 32 v60,2013-03-10 00:40:00,
2013-03-09 18:45:00,34.0,31.6,29.82,SW,225,0.0,3.0,91,0.01,,,-99.99,Weather View 32 v60,2013-03-10 00:45:00,
2013-03-09 18:50:00,34.0,31.6,29.82,SW,225,0.0,3.0,91,0.01,,,-99.99,Weather View 32 v60,2013-03-10 00:50:00,
2013-03-09 18:55:00,34.0,31.6,29.82,SW,225,0.0,3.0,91,0.01,,,-99.99,Weather View 32 v60,2013-03-10 00:55:00,
2013-03-09 19:00:00,34.0,31.6,29.82,SW,225,0.0,3.0,91,0.01,,,-99.99,Weather View 32 v60,2013-03-10 01:00:00,
2013-03-09 19:05:00,34.0,31.6,29.82,SW,225,0.0,3.0,91,0.01,,,-99.99,Weather View 32 v60,2013-03-10 01:05:00,
2013-03-09 19:10:00,34.0,31.6,29.82,SW,225,0.0,3.0,91,0.02,,,-99.99,Weather View 32 v60,2013-03-10 01:10:00,
2013-03-09 19:15:00,34.0,31.6,29.82,SW,225,0.0,3.0,91,0.02,,,-99.99,Weather View 32 v60,2013-03-10 01:15:00,
2013-03-09 19:25:00,33.0,30.7,29.82,SW,225,0.0,3.0,91,0.01,,,-99.99,Weather View 32 v60,2013-03-10 01:25:00,
2013-03-09 19:30:00,33.0,30.7,29.82,SW,225,0.0,3.0,91,0.01,,,-99.99,Weather View 32 v60,2013-03-10 01:30:00,
2013-03-09 19:35:00,33.0,30.7,29.82,SW,225,0.0,1.0,91,0.01,,,-99.99,Weather View 32 v60,2013-03-10 01:35:00,
2013-03-09 19:45:00,33.0,30.7,29.81,SW,225,0.0,1.0,91,0.01,,,-99.99,Weather View 32 v60,2013-03-10 01:45:00,
2013-03-09 19:50:00,33.0,30.7,29.82,SW,225,0.0,1.0,91,0.01,,,-99.99,Weather View 32 v60,2013-03-10 01:50:00,
2013-03-09 19:55:00,33.0,30.7,29.82,SW,225,0.0,1.0,91,0.01,,,-99.99,Weather View 32 v60,2013-03-10 01:55:00,
2013-03-09 20:00:00,33.0,30.7,29.82,SW,225,0.0,1.0,91,0.01,,,-99.99,Weather View 32 v60,2013-03-10 02:00:00,
2013-03-09 20:05:00,33.0,30.7,29.82,SW,225,0.0,1.0,91,0.01,,,-99.99,Weather View 32 v60,2013-03-10 02:05:00,
2013-03-09 20:10:00,33.0,30.7,29.82,SW,225,0.0,1.0,91,0.00,,,-99.99,Weather View 32 v60,2013-03-10 02:10:00,
2013-03-09 20:15:00,33.0,30.7,29.82,SW,225,0.0,1.0,91,0.01,,,-99.99,Weather View 32 v60,2013-03-10 02:15:00,
2013-03-09 20:20:00,33.0,30.7,29.82,SW,225,0.0,1.0,91,0.01,,,-99.99,Weather View 32 v60,2013-03-10 02:20:00,
2013-03-09 20:25:00,33.0,30.7,29.82,SW,225,0.0,1.0,91,0.01,,,-99.99,Weather View 32 v60,2013-03-10 02:25:00,
2013-03-09 20:30:00,33.0,30.7,29.82,SW,225,0.0,1.0,91,0.01,,,-99.99,Weather View 32 v60,2013-03-10 02:30:00,
2013-03-09 20:35:00,33.0,30.7,29.82,SW,225,0.0,1.0,91,0.01,,,-99.99,Weather View 32 v60,2013-03-10 02:35:00,
2013-03-09 20:40:00,33.0,30.7,29.83,SW,225,0.0,1.0,91,0.01,,,-99.99,Weather View 32 v60,2013-03-10 02:40:00,
2013-03-09 20:45:00,33.0,30.7,29.83,SSW,202,0.0,0.0,91,0.01,,,-99.99,Weather View 32 v60,2013-03-10 02:45:00,
2013-03-09 20:50:00,33.0,30.7,29.82,SSW,202,0.0,0.0,91,0.01,,,-99.99,Weather View 32 v60,2013-03-10 02:50:00,
2013-03-09 20:55:00,33.0,30.7,29.82,WSW,248,0.0,0.0,91,0.01,,,-99.99,Weather View 32 v60,2013-03-10 02:55:00,
2013-03-09 21:00:00,33.0,30.7,29.83,WSW,248,0.0,0.0,91,0.01,,,-99.99,Weather View 32 v60,2013-03-10 03:00:00,
2013-03-09 21:05:00,33.0,30.7,29.83,SSW,202,0.0,0.0,91,0.02,,,-99.99,Weather View 32 v60,2013-03-10 03:05:00,
2013-03-09 21:10:00,33.0,30.7,29.83,SW,225,0.0,0.0,91,0.02,,,-99.99,Weather View 32 v60,2013-03-10 03:10:00,
2013-03-09 21:15:00,33.0,30.7,29.83,WSW,248,0.0,0.0,91,0.01,,,-99.99,Weather View 32 v60,2013-03-10 03:15:00,
2013-03-09 21:25:00,33.0,30.7,29.83,WNW,292,0.0,0.0,91,0.01,,,-99.99,Weather View 32 v60,2013-03-10 03:25:00,
2013-03-09 21:30:00,33.0,30.7,29.83,West,270,1.0,1.0,91,0.01,,,-99.99,Weather View 32 v60,2013-03-10 03:30:00,
2013-03-09 21:35:00,33.0,30.7,29.83,WSW,248,0.0,1.0,91,0.01,,,-99.99,Weather View 32 v60,2013-03-10 03:35:00,
2013-03-09 21:40:00,33.0,30.7,29.84,WSW,248,0.0,1.0,91,0.01,,,-99.99,Weather View 32 v60,2013-03-10 03:40:00,
2013-03-09 21:50:00,33.0,30.7,29.84,WSW,248,0.0,1.0,91,0.01,,,-99.99,Weather View 32 v60,2013-03-10 03:50:00,
2013-03-09 21:55:00,33.0,30.7,29.84,WSW,248,0.0,1.0,91,0.01,,,-99.99,Weather View 32 v60,2013-03-10 03:55:00,
2013-03-09 22:00:00,33.0,30.7,29.84,SW,225,0.0,1.0,91,0.01,,,-99.99,Weather View 32 v60,2013-03-10 04:00:00,
2013-03-09 22:05:00,33.0,30.9,29.85,NW,315,2.0,3.0,92,0.02,,,-99.99,Weather View 32 v60,2013-03-10 04:05:00,
2013-03-09 22:10:00,33.0,30.7,29.83,WNW,292,2.0,3.0,91,0.00,,,-99.99,Weather View 32 v60,2013-03-10 04:10:00,
2013-03-09 22:15:00,33.0,30.9,29.83,SSW,202,1.0,3.0,92,0.01,,,-99.99,Weather View 32 v60,2013-03-10 04:15:00,
2013-03-09 22:20:00,33.0,30.9,29.83,North,0,2.0,3.0,92,0.01,,,-99.99,Weather View 32 v60,2013-03-10 04:20:00,
2013-03-09 22:25:00,33.0,30.9,29.86,NNW,338,3.0,5.0,92,0.01,,,-99.99,Weather View 32 v60,2013-03-10 04:25:00,
2013-03-09 22:30:00,33.0,30.9,29.84,SW,225,0.0,3.0,92,0.01,,,-99.99,Weather View 32 v60,2013-03-10 04:30:00,
2013-03-09 22:35:00,33.0,30.9,29.85,WSW,248,1.0,3.0,92,0.01,,,-99.99,Weather View 32 v60,2013-03-10 04:35:00,
2013-03-09 22:40:00,33.0,30.9,29.86,NNW,338,5.0,6.0,92,0.01,,,-99.99,Weather View 32 v60,2013-03-10 04:40:00,
2013-03-09 22:45:00,33.0,30.9,29.85,WNW,292,2.0,3.0,92,0.01,,,-99.99,Weather View 32 v60,2013-03-10 04:45:00,
2013-03-09 22:50:00,33.0,30.9,29.86,WNW,292,1.0,3.0,92,0.01,,,-99.99,Weather View 32 v60,2013-03-10 04:50:00,
2013-03-09 22:55:00,33.0,30.9,29.85,North,0,1.0,3.0,92,0.01,,,-99.99,Weather View 32 v60,2013-03-10 04:55:00,
2013-03-09 23:00:00,33.0,30.9,29.87,NW,315,3.0,6.0,92,0.01,,,-99.99,Weather View 32 v60,2013-03-10 05:00:00,
2013-03-09 23:05:00,33.0,30.9,29.87,NNE,22,3.0,6.0,92,0.00,,,-99.99,Weather View 32 v60,2013-03-10 05:05:00,
2013-03-09 23:10:00,33.0,30.9,29.87,NW,315,2.0,6.0,92,0.00,,,-99.99,Weather View 32 v60,2013-03-10 05:10:00,
2013-03-09 23:15:00,33.0,30.9,29.87,North,0,3.0,6.0,92,0.00,,,-99.99,Weather View 32 v60,2013-03-10 05:15:00,
2013-03-09 23:20:00,33.0,30.9,29.88,North,0,3.0,6.0,92,0.00,,,-99.99,Weather View 32 v60,2013-03-10 05:20:00,
2013-03-09 23:25:00,33.0,30.9,29.88,North,0,3.0,6.0,92,0.01,,,-99.99,Weather View 32 v60,2013-03-10 05:25:00,
2013-03-09 23:30:00,33.0,30.9,29.88,WNW,292,2.0,6.0,92,0.01,,,-99.99,Weather View 32 v60,2013-03-10 05:30:00,
2013-03-09 23:35:00,33.0,30.9,29.87,NNE,22,3.0,6.0,92,0.01,,,-99.99,Weather View 32 v60,2013-03-10 05:35:00,
2013-03-09 23:40:00,33.0,30.9,29.87,NNW,338,4.0,6.0,92,0.01,,,-99.99,Weather View 32 v60,2013-03-10 05:40:00,
2013-03-09 23:45:00,33.0,30.9,29.88,NNW,338,4.0,6.0,92,0.01,,,-99.99,Weather View 32 v60,2013-03-10 05:45:00,
2013-03-09 23:50:00,33.0,30.9,29.87,North,0,5.0,8.0,92,0.01,,,-99.99,Weather View 32 v60,2013-03-10 05:50:00,
2013-03-09 23:55:00,33.0,31.2,29.87,North,0,4.0,9.0,93,0.01,,,-99.99,Weather View 32 v60,2013-03-10 05:55:00,